小惑星2010 LX90

2010 LX90

English version
Home page
Updated on August 21, 2010

---------------------------------------------------------------------

・ プロフィール

・ 軌道要素

The following orbital elements are taken from MPEC 2010-Q12:

Epoch 2010 July 23.0 TT = JDT 2455400.5                 MPC
M  17.01866              (2000.0)            P               Q
n   0.07341844     Peri.  125.19931     +0.17989320     +0.98169573
a   5.6484934      Node   154.94327     -0.94370021     +0.19017557
e   0.5398591      Incl.    8.49261     -0.27761189     -0.01033221
P  13.4            H   16.8           G   0.15           U   6
From 10 observations 2010 June 12-Aug. 14, mean residual 0".45.

・ 光度変化

        H = 16.8  G = 0.15

---------------------------------------------------------------------

軌道要素はMPCのEphemerides and Orbital Elementsに掲載されたものです。
光度グラフはComet for Windowsで作成したものです。

---------------------------------------------------------------------

Copyright(C) Seiichi Yoshida (comet@aerith.net). All rights reserved.